Wind_Speed
17 17 18 20 20 20 19 18 18 17 13 12 9 7 7 7 6 5 8 8 10 11 15 17 19 21 24 30 30 29 28 28 30 30 31 29 25 24 25 22 22 24 24 24 29 33 31 27 26 27 28 27 24 24
18 18 20 19 18 17 17 17 17 17 14 12 10 8 7 6 6 6 5 8 11 11 16 18 19 21 22 25 27 26 26 23 23 22 21 24 25 25 25 26 26 29 28 26 26 26 27 23 24 27 29 28 28 29
17 17 16 15 16 16 17 19 20 18 15 13 11 10 8 7 7 7 6 6 7 13 15 18 19 21 23 26 27 29 29 29 29 24 26 25 26 25 25 26 27 27 26 28 28 30 29 26 26 27 27 28 29 30
16 15 16 17 17 18 18 20 21 19 15 13 12 11 9 8 8 8 8 7 7 8 11 15 17 19 21 23 25 28 30 31 28 28 29 27 27 29 29 29 30 29 29 30 29 29 29 29 29 29 29 29 29 30
16 17 19 20 21 21 22 21 21 19 16 13 11 11 9 9 9 10 10 9 8 7 6 7 11 15 19 19 20 22 23 25 28 29 31 32 32 33 34 33 33 32 31 31 31 32 32 32 32 32 33 32 32 33
19 20 22 23 24 24 23 22 20 19 16 13 12 11 10 9 12 12 11 11 12 11 9 8 9 11 12 14 17 21 24 25 26 28 31 33 35 37 39 38 36 36 34 33 33 33 35 36 35 35 35 35 35 36
20 21 22 23 24 23 22 21 19 18 16 14 14 11 11 12 12 12 12 12 13 14 14 13 12 13 15 16 18 19 20 21 23 27 30 33 35 38 40 39 34 36 35 35 36 36 37 36 36 37 37 37 37 37
18 19 21 21 21 21 21 20 19 18 16 15 14 13 12 13 13 13 13 14 14 15 16 16 15 15 16 16 18 20 22 24 25 27 28 31 33 34 36 35 35 35 37 35 31 38 39 40 39 38 38 38 38 38
18 19 19 20 21 21 21 20 18 18 17 15 15 14 14 14 15 15 15 15 15 16 18 18 17 17 17 18 19 20 21 22 23 25 27 28 30 33 34 34 35 34 34 34 34 36 41 42 40 39 39 38 38 37
19 19 20 20 21 20 20 20 18 17 17 16 16 16 16 16 16 16 15 14 15 17 18 19 19 19 19 21 21 20 22 22 22 23 25 26 27 29 32 33 33 33 33 35 36 37 36 38 37 35 33 31 31 33
19 20 21 21 20 20 20 19 18 16 15 16 16 16 16 17 16 16 16 16 16 17 18 19 21 21 21 22 22 22 21 21 22 22 25 28 29 30 34 37 35 33 30 33 30 33 28 36 36 30 33 32 31 31
22 21 19 19 21 22 21 20 19 18 17 17 17 16 16 16 16 16 16 16 16 17 18 19 20 20 20 20 21 21 21 21 21 22 22 24 25 22 22 24 19 24 32 35 37 39 31 32 28 28 28 27 25 25
22 22 20 19 20 22 23 22 22 21 19 17 17 16 16 16 16 17 17 16 17 19 19 19 19 20 20 20 21 20 20 19 21 20 20 20 21 19 21 23 19 18 21 29 21 22 25 21 17 22 25 28 29 29
22 21 20 20 22 23 23 23 23 22 20 19 19 17 17 17 18 17 17 18 19 19 19 19 19 20 20 20 19 20 21 20 19 20 19 19 17 13 12 11 12 7 7 11 13 11 16 17 20 23 26 25 24 25
20 19 21 22 24 24 24 23 24 23 21 20 19 18 17 17 19 20 20 20 18 19 20 20 21 20 19 19 19 20 19 18 17 15 13 13 12 10 10 6 5 5 11 15 12 15 15 17 18 18 19 20 21 18
27 28 26 25 26 26 25 25 25 24 22 22 22 19 19 21 21 22 20 18 19 19 19 20 21 20 19 18 19 18 17 15 13 13 11 12 12 9 8 6 4 4 8 11 14 15 16 18 17 18 20 20 19 17
28 28 28 25 26 27 25 24 24 23 24 24 23 24 22 25 23 23 19 19 20 20 20 21 20 20 19 18 15 15 14 13 14 14 14 17 16 13 11 10 9 10 9 11 12 12 14 16 17 18 20 20 21 21
31 29 29 29 28 28 26 23 24 23 24 24 22 19 19 23 21 16 16 19 21 21 21 21 20 19 17 15 16 15 16 15 15 15 15 11 9 12 14 13 13 14 13 14 16 16 20 22 22 23 23 24 21 20
34 33 33 31 30 28 25 25 25 24 23 23 20 21 22 21 18 19 19 20 20 21 21 20 15 13 10 10 11 12 12 13 14 13 13 13 12 12 12 13 13 14 16 18 17 17 20 22 25 25 25 23 21 19
34 31 30 29 27 27 27 26 26 24 23 22 24 26 23 21 15 16 18 19 21 21 16 13 12 12 12 11 11 11 10 7 9 14 14 14 14 15 14 15 17 17 16 15 13 14 14 13 14 16 18 18 18 17
32 29 28 28 27 26 25 25 25 25 25 22 21 20 16 11 16 20 19 19 17 15 13 11 10 10 11 11 11 11 10 13 14 14 14 14 14 15 14 18 18 15 13 11 11 10 10 12 13 11 11 12 13 14
30 29 29 28 25 24 24 24 25 26 25 23 18 14 16 19 19 19 17 14 12 11 11 11 12 13 13 13 13 12 12 12 13 14 13 13 14 14 16 17 12 9 9 10 10 12 11 11 9 8 9 10 11 9
30 27 23 22 21 22 23 25 27 29 24 13 12 16 18 18 16 13 11 11 11 11 10 9 10 12 11 10 10 11 13 15 13 12 13 15 17 19 18 14 10 9 9 8 8 6 5 6 4 4 6 6 7 11
23 20 19 18 18 20 19 13 7 4 7 12 15 14 12 11 11 11 11 10 10 11 11 11 10 8 9 10 10 11 12 9 9 11 13 15 16 13 9 12 11 8 5 3 5 5 3 4 6 7 8 6 8 5
16 15 15 16 15 10 10 5 8 11 9 9 10 11 12 12 11 11 10 9 9 10 9 9 9 9 8 7 9 10 11 11 11 9 7 4 4 8 9 9 6 4 2 2 3 3 2 5 7 8 10 4 2 2
12 12 13 13 9 9 6 9 6 6 8 9 9 10 10 10 8 7 7 7 7 6 4 4 4 4 6 8 7 5 2 2 4 5 7 8 9 10 11 11 10 9 7 4 4 5 7 9 7 6 6 5 4 6
12 14 13 13 7 3 4 4 4 5 5 6 8 9 8 6 6 5 7 8 5 4 4 3 4 4 5 2 1 2 4 7 12 11 9 9 8 8 7 6 7 8 11 11 7 4 4 5 5 5 4 4 5 8
13 12 10 6 3 2 2 3 4 5 5 7 7 6 4 1 0 2 5 3 2 2 1 2 3 2 1 2 4 9 12 9 9 6 4 4 5 5 7 8 9 11 12 13 10 7 4 3 3 4 4 6 9 11
3 10 9 7 6 6 6 5 6 7 8 8 8 5 4 5 5 3 2 1 0 2 2 1 3 3 8 9 16 14 10 9 7 3 2 3 5 6 8 8 10 12 13 13 9 7 6 7 7 8 8 10 11 13
10 10 9 9 9 8 9 8 8 9 10 10 9 7 4 2 3 4 4 3 2 3 4 3 3 5 9 10 12 7 4 3 2 2 3 5 6 7 9 12 16 18 16 10 7 5 6 7 9 10 11 12 14 16
10 10 11 12 11 10 9 8 7 7 8 9 9 9 9 7 4 2 0 3 3 4 4 5 8 7 7 7 8 5 2 3 2 2 3 5 6 8 11 15 19 16 12 8 6 6 7 7 7 9 12 15 18 20
11 10 12 11 10 9 6 6 7 7 7 7 7 6 8 7 6 3 1 0 2 3 6 11 11 8 6 5 5 4 3 2 1 3 5 7 7 9 14 18 18 14 11 10 10 9 7 8 10 14 17 20 22 23
9 11 12 11 9 6 5 5 5 6 7 7 7 4 4 5 6 6 2 2 5 5 6 10 8 5 2 2 3 3 3 2 3 6 7 7 9 12 15 17 14 11 10 9 9 9 11 13 16 20 22 23 24 26
Wind_Direction
317 320 321 318 317 319 320 324 324 326 322 311 307 315 314 314 324 293 250 250 245 236 230 228 231 233 230 231 238 245 255 256 255 256 259 263 263 260 256 258 257 261 262 253 249 254 257 266 259 264 271 275 274 267
314 317 321 322 323 323 323 326 326 324 318 307 302 299 307 307 299 306 293 253 241 241 237 237 235 237 234 233 239 246 252 252 252 249 253 249 256 261 261 259 252 249 254 255 255 259 260 262 265 265 267 268 268 270
312 319 326 330 333 332 329 331 331 326 317 306 300 296 295 301 292 285 288 279 260 237 236 239 242 242 243 244 245 248 251 248 253 244 257 259 257 258 261 264 262 258 258 258 260 263 266 268 266 266 266 269 271 273
314 315 320 325 326 327 326 327 329 327 318 308 298 292 285 289 292 284 274 271 275 264 248 240 243 246 248 250 252 254 253 251 252 250 253 257 258 255 256 258 256 255 256 257 257 258 260 261 257 262 269 274 272 273
311 316 318 317 316 317 316 319 322 323 319 308 297 291 281 284 291 287 277 261 260 260 266 255 250 251 253 256 257 259 260 256 251 251 251 258 261 264 264 263 263 263 262 261 260 257 254 254 255 258 264 265 266 267
309 310 312 313 312 312 313 313 314 317 314 304 298 288 282 286 295 289 278 266 253 250 253 263 267 269 270 267 263 258 256 256 256 255 253 256 258 259 260 260 261 261 258 258 260 260 258 256 254 257 259 262 264 267
310 311 311 311 311 312 314 314 311 312 309 299 294 288 283 286 294 290 281 273 265 256 253 258 268 265 262 268 274 276 275 270 264 261 261 260 259 259 261 264 264 262 260 261 258 255 256 259 256 253 256 259 261 265
319 319 320 319 317 316 315 312 308 306 305 295 288 285 280 283 289 291 284 277 272 260 255 260 265 267 276 278 278 279 278 276 276 274 271 269 268 266 264 264 262 261 261 258 263 254 252 253 257 258 257 260 263 266
326 325 324 323 320 317 316 314 308 303 299 293 284 283 283 283 287 289 287 277 270 264 259 261 266 265 271 276 279 285 286 284 282 280 278 274 273 272 273 268 264 262 259 256 256 255 251 249 253 257 258 261 264 266
323 322 321 322 323 323 320 319 314 306 298 292 287 283 281 284 286 289 287 279 274 269 262 262 265 266 271 275 278 280 284 288 288 285 284 284 281 276 274 270 267 264 261 255 258 252 248 249 254 259 261 263 270 268
325 325 324 323 322 324 322 322 320 315 307 298 292 289 282 282 286 287 288 285 281 275 271 267 268 271 274 275 276 282 284 288 288 287 285 286 286 283 277 272 259 258 257 259 254 246 246 247 252 257 263 266 268 268
320 323 323 322 323 322 320 320 318 313 308 302 296 292 285 284 289 292 291 290 287 283 280 277 276 275 276 279 281 281 282 284 287 289 290 291 290 288 275 260 245 248 239 259 235 240 234 250 250 257 258 261 265 270
317 319 322 321 319 320 322 321 316 314 311 304 298 292 284 285 289 292 294 294 292 289 285 281 278 278 279 278 279 280 278 282 287 291 294 298 309 305 279 277 256 254 233 225 217 224 240 232 237 248 253 261 270 271
314 317 321 325 323 320 318 318 316 312 309 305 299 293 284 284 283 287 294 297 292 288 286 283 282 282 281 279 279 276 277 278 281 288 290 292 300 301 313 290 263 239 250 250 228 216 221 230 249 263 263 267 268 269
312 311 313 317 317 316 312 310 312 312 306 304 301 295 291 283 280 280 280 286 286 284 288 288 287 285 281 278 277 274 271 271 279 282 286 292 311 318 286 289 306 263 228 212 232 206 236 247 244 258 262 259 255 259
298 298 299 300 303 306 307 308 308 307 304 303 301 297 292 287 283 286 280 283 291 289 285 285 284 284 282 279 277 276 267 267 269 272 276 291 294 286 280 292 329 278 253 252 251 234 227 238 246 247 258 256 258 264
296 294 294 297 299 300 304 304 305 303 301 304 305 302 282 278 277 280 279 287 288 288 290 289 287 285 282 276 269 261 257 262 269 271 283 289 273 261 263 288 289 271 269 272 280 276 266 263 252 250 254 255 262 270
297 292 291 295 298 296 297 300 301 299 298 302 302 300 289 282 286 281 278 280 286 288 287 286 287 281 280 278 275 266 257 262 268 272 277 260 272 247 257 269 277 278 284 277 273 263 254 259 266 267 267 265 265 270
295 291 287 287 289 291 293 292 294 294 296 299 293 296 296 283 273 273 282 291 288 284 284 287 287 278 277 271 267 263 257 260 253 258 254 263 260 258 264 276 282 280 280 282 279 273 268 267 267 268 264 263 264 264
293 289 287 285 286 287 288 288 291 292 296 294 295 295 289 286 278 278 283 284 283 286 287 282 282 277 272 262 255 254 255 264 263 244 251 257 260 268 279 292 290 289 290 285 271 278 277 270 271 272 265 256 253 254
285 283 283 284 283 283 284 284 286 291 295 296 295 287 291 281 287 289 288 284 281 279 275 269 265 271 260 253 253 252 260 246 266 257 256 252 258 274 284 292 296 298 296 282 270 269 281 281 272 272 268 265 258 258
273 276 279 281 279 278 280 283 284 287 293 291 283 285 291 288 288 289 288 281 276 268 264 265 262 265 266 261 258 260 261 261 267 269 264 261 277 271 277 282 271 266 280 274 273 275 274 277 270 267 273 274 271 265
276 273 269 268 269 275 282 288 286 286 283 273 287 288 289 288 287 285 279 275 273 269 260 258 263 261 253 257 262 269 279 280 277 280 278 286 298 295 281 265 254 258 279 288 288 286 270 275 262 289 293 277 260 282
277 266 260 264 272 285 291 292 296 297 292 289 289 290 287 287 287 284 280 279 269 260 254 255 257 253 253 259 273 286 292 289 279 280 295 307 310 314 279 230 237 261 286 294 283 281 288 296 253 270 304 302 306 302
264 261 264 271 277 268 266 283 301 299 300 296 294 293 293 294 288 280 272 261 255 257 259 251 270 253 254 265 289 301 297 291 280 290 304 346 41 62 90 108 108 84 26 14 14 336 264 258 253 271 285 278 251 309
258 261 268 270 247 249 266 297 300 305 306 304 305 304 298 292 285 271 243 240 250 253 247 250 261 275 283 284 292 293 332 76 107 127 118 105 85 82 86 89 86 61 42 11 323 295 286 291 279 260 247 251 280 307
260 269 268 253 227 269 285 307 327 333 333 326 323 319 308 290 261 239 219 216 240 251 258 251 275 298 300 289 208 145 143 133 117 115 107 84 75 80 74 57 31 19 16 13 17 5 286 254 231 223 239 288 314 317
266 267 234 174 177 142 77 60 32 12 8 5 4 8 6 358 227 203 196 258 225 313 348 298 331 345 141 168 157 133 133 132 141 146 123 74 67 58 36 26 14 2 353 351 336 327 303 234 218 263 288 309 304 303
223 152 142 137 127 125 115 88 58 52 45 41 42 49 62 66 85 104 153 157 187 202 213 183 62 3 156 124 136 130 110 108 90 136 152 37 35 22 12 2 354 343 330 317 301 291 273 259 263 277 285 290 299 306
132 133 128 127 125 120 107 84 64 56 50 44 44 44 34 318 290 287 290 277 255 192 190 193 181 111 138 162 159 145 102 51 39 49 19 15 356 353 1 357 345 335 329 325 302 274 272 263 265 277 290 301 307 313
135 135 135 133 127 118 106 89 66 54 47 47 47 45 38 32 32 21 235 163 160 175 193 171 161 162 155 160 183 201 298 330 4 19 352 342 349 358 358 353 344 334 332 329 316 300 298 291 287 297 306 313 315 315
139 139 143 137 131 125 103 72 63 55 46 36 21 29 35 22 8 3 44 124 141 174 164 166 164 162 154 174 185 200 248 269 294 319 330 336 343 349 347 345 345 344 342 334 325 327 325 319 315 314 314 314 313 313
143 147 147 142 138 116 83 56 38 26 19 10 8 334 342 359 360 349 322 140 137 136 147 167 175 185 186 161 198 225 254 269 305 323 325 324 331 338 339 340 341 337 327 320 320 316 312 311 310 311 312 313 314 314
Height
5806 5804 5801 5798 5795 5793 5790 5788 5785 5782 5779 5778 5776 5775 5774 5773 5772 5771 5772 5772 5773 5774 5776 5778 5780 5783 5786 5789 5791 5795 5797 5798 5801 5803 5805 5807 5809 5810 5811 5813 5814 5816 5818 5820 5822 5823 5824 5828 5829 5830 5830 5828 5830 5832
5803 5801 5798 5795 5792 5789 5787 5785 5782 5780 5777 5775 5774 5773 5773 5772 5771 5770 5770 5769 5770 5771 5773 5773 5776 5778 5781 5784 5786 5789 5790 5792 5794 5795 5797 5799 5801 5802 5804 5805 5808 5810 5811 5812 5814 5816 5818 5819 5819 5820 5820 5820 5821 5821
5800 5798 5795 5792 5790 5787 5785 5782 5780 5777 5775 5773 5771 5771 5770 5770 5769 5769 5768 5767 5767 5768 5768 5769 5771 5773 5775 5777 5780 5782 5783 5785 5787 5789 5791 5791 5793 5795 5796 5797 5798 5800 5802 5802 5806 5807 5808 5811 5811 5812 5812 5811 5812 5812
5797 5794 5792 5790 5787 5784 5782 5779 5776 5773 5771 5770 5768 5768 5767 5767 5767 5766 5766 5765 5765 5765 5765 5767 5767 5768 5770 5771 5772 5773 5775 5777 5780 5782 5783 5785 5786 5787 5788 5789 5790 5792 5793 5795 5796 5798 5801 5803 5802 5803 5804 5804 5804 5803
5793 5791 5789 5786 5784 5781 5778 5775 5773 5770 5768 5766 5765 5765 5764 5764 5763 5763 5763 5763 5763 5764 5763 5763 5764 5764 5765 5766 5767 5768 5769 5770 5772 5774 5775 5777 5778 5778 5778 5780 5781 5783 5785 5787 5788 5789 5790 5792 5795 5796 5796 5795 5795 5795
5790 5787 5785 5782 5779 5776 5774 5771 5769 5766 5764 5763 5762 5761 5761 5761 5760 5760 5759 5759 5759 5760 5760 5760 5761 5760 5761 5761 5761 5762 5763 5764 5765 5766 5767 5768 5769 5768 5768 5771 5774 5774 5775 5776 5778 5779 5780 5782 5785 5785 5786 5786 5786 5786
5785 5783 5780 5777 5774 5771 5769 5766 5764 5762 5761 5759 5758 5758 5758 5757 5757 5756 5756 5756 5755 5756 5756 5757 5756 5756 5756 5756 5756 5756 5756 5756 5757 5757 5758 5758 5759 5759 5758 5759 5764 5763 5764 5766 5767 5768 5770 5772 5773 5774 5775 5775 5775 5775
5780 5778 5776 5773 5770 5767 5764 5762 5759 5758 5756 5755 5754 5754 5754 5753 5753 5752 5751 5751 5750 5751 5751 5752 5752 5752 5751 5751 5751 5750 5749 5749 5748 5747 5748 5747 5747 5747 5747 5749 5750 5751 5752 5754 5755 5757 5758 5759 5762 5763 5763 5764 5765 5766
5777 5774 5772 5769 5766 5763 5760 5757 5755 5753 5752 5751 5750 5749 5749 5749 5748 5748 5747 5746 5745 5747 5745 5746 5746 5746 5746 5745 5744 5744 5742 5741 5741 5739 5738 5738 5737 5735 5735 5735 5736 5738 5740 5741 5742 5743 5744 5747 5749 5751 5753 5755 5756 5756
5774 5771 5768 5765 5762 5759 5756 5754 5751 5749 5747 5746 5746 5745 5745 5744 5743 5743 5742 5741 5740 5739 5739 5739 5740 5739 5740 5738 5737 5738 5735 5733 5732 5731 5729 5728 5727 5725 5723 5723 5724 5726 5727 5728 5731 5732 5735 5736 5739 5741 5743 5744 5744 5744
5770 5767 5765 5762 5759 5756 5753 5750 5747 5745 5743 5742 5741 5740 5739 5739 5738 5737 5736 5736 5735 5734 5733 5733 5733 5733 5732 5731 5730 5729 5728 5727 5725 5725 5722 5719 5717 5715 5712 5709 5710 5713 5716 5717 5718 5721 5725 5726 5729 5731 5733 5734 5734 5734
5766 5763 5760 5758 5755 5752 5749 5747 5744 5742 5739 5738 5736 5735 5734 5733 5733 5733 5731 5730 5729 5728 5727 5726 5726 5725 5724 5724 5723 5722 5721 5720 5718 5717 5715 5712 5709 5706 5702 5700 5700 5704 5706 5708 5709 5713 5716 5718 5720 5721 5723 5724 5725 5725
5762 5759 5756 5753 5751 5748 5745 5743 5740 5737 5735 5733 5732 5730 5729 5729 5728 5726 5725 5725 5723 5722 5721 5720 5719 5718 5717 5717 5716 5715 5714 5713 5711 5710 5708 5706 5703 5700 5697 5699 5698 5698 5696 5700 5700 5702 5707 5708 5711 5713 5714 5715 5716 5716
5758 5755 5752 5749 5746 5744 5741 5738 5735 5733 5730 5729 5727 5725 5724 5723 5722 5721 5720 5719 5718 5716 5714 5714 5713 5713 5711 5710 5709 5708 5707 5706 5705 5704 5703 5702 5700 5698 5695 5693 5695 5693 5694 5695 5697 5698 5701 5703 5706 5707 5707 5707 5708 5708
5752 5751 5748 5745 5741 5738 5735 5732 5730 5727 5725 5723 5721 5720 5719 5718 5716 5715 5714 5712 5712 5710 5708 5707 5706 5706 5704 5703 5702 5702 5701 5700 5700 5700 5699 5698 5697 5695 5694 5693 5691 5690 5692 5692 5693 5695 5696 5698 5698 5700 5700 5701 5702 5702
5746 5743 5741 5739 5736 5732 5729 5726 5724 5722 5719 5718 5716 5715 5713 5710 5710 5708 5706 5706 5705 5703 5702 5701 5699 5698 5698 5697 5696 5695 5696 5695 5695 5695 5695 5694 5693 5692 5692 5690 5688 5689 5689 5689 5690 5691 5692 5693 5693 5694 5696 5697 5696 5696
5739 5736 5732 5730 5728 5725 5722 5719 5717 5715 5713 5711 5709 5708 5705 5703 5701 5701 5700 5699 5698 5696 5695 5694 5693 5692 5691 5690 5690 5690 5690 5691 5691 5690 5690 5689 5687 5688 5688 5688 5688 5687 5686 5686 5686 5687 5687 5687 5687 5689 5689 5690 5690 5690
5730 5727 5724 5722 5719 5717 5715 5712 5710 5707 5705 5704 5702 5700 5698 5697 5695 5694 5694 5693 5692 5689 5687 5687 5686 5685 5685 5685 5685 5685 5686 5686 5686 5685 5685 5684 5684 5684 5683 5684 5684 5682 5680 5681 5681 5681 5681 5681 5682 5682 5683 5683 5683 5683
5719 5717 5715 5712 5710 5708 5707 5705 5702 5700 5698 5696 5694 5692 5692 5692 5691 5689 5687 5686 5684 5683 5682 5681 5681 5680 5681 5681 5681 5681 5681 5681 5681 5681 5680 5680 5680 5680 5680 5679 5678 5677 5676 5676 5675 5675 5676 5676 5676 5675 5676 5676 5676 5677
5709 5706 5704 5702 5701 5699 5698 5696 5694 5692 5691 5689 5687 5684 5683 5683 5683 5682 5682 5680 5678 5676 5677 5676 5676 5676 5676 5676 5676 5677 5677 5677 5676 5677 5677 5676 5676 5675 5675 5673 5672 5672 5671 5671 5671 5670 5670 5669 5669 5668 5668 5669 5670 5670
5697 5696 5694 5692 5691 5690 5689 5687 5686 5684 5682 5681 5679 5677 5677 5677 5677 5676 5675 5673 5672 5672 5671 5672 5672 5672 5672 5672 5672 5672 5673 5673 5673 5673 5673 5673 5673 5672 5671 5670 5668 5667 5667 5666 5666 5666 5665 5665 5664 5663 5663 5663 5664 5665
5684 5684 5683 5683 5682 5681 5681 5679 5679 5677 5675 5674 5673 5672 5672 5672 5671 5669 5668 5668 5668 5667 5668 5668 5668 5668 5667 5667 5668 5668 5669 5669 5669 5669 5670 5670 5669 5668 5667 5666 5665 5665 5665 5664 5663 5662 5662 5662 5661 5661 5661 5661 5661 5661
5674 5674 5673 5673 5674 5673 5674 5671 5670 5668 5667 5667 5668 5668 5667 5666 5665 5664 5664 5664 5664 5663 5664 5664 5664 5664 5664 5664 5664 5665 5664 5664 5664 5664 5664 5663 5662 5660 5659 5659 5661 5661 5661 5661 5660 5659 5659 5659 5659 5659 5659 5658 5658 5659
5665 5665 5666 5667 5667 5667 5665 5664 5662 5662 5663 5663 5663 5662 5662 5661 5661 5660 5660 5660 5660 5660 5660 5661 5661 5660 5660 5661 5662 5661 5661 5661 5660 5659 5660 5659 5656 5652 5649 5652 5656 5657 5658 5658 5658 5658 5658 5657 5657 5657 5657 5656 5656 5655
5659 5660 5662 5662 5662 5662 5661 5661 5661 5660 5659 5659 5659 5658 5657 5657 5657 5656 5656 5656 5656 5657 5657 5657 5657 5657 5658 5659 5659 5658 5658 5657 5657 5658 5658 5658 5656 5654 5653 5654 5656 5656 5657 5656 5656 5656 5656 5656 5655 5655 5655 5654 5654 5653
5654 5656 5657 5657 5657 5658 5658 5658 5658 5657 5657 5656 5655 5655 5654 5653 5653 5653 5653 5654 5654 5655 5655 5655 5656 5656 5657 5657 5656 5656 5656 5655 5656 5657 5657 5657 5657 5657 5656 5657 5658 5658 5657 5656 5655 5655 5654 5654 5654 5653 5654 5653 5653 5652
5651 5652 5653 5652 5654 5656 5656 5656 5656 5655 5655 5654 5653 5651 5650 5650 5650 5651 5652 5653 5654 5655 5655 5655 5656 5656 5656 5655 5655 5656 5657 5658 5658 5659 5659 5660 5660 5659 5659 5659 5658 5658 5657 5655 5654 5653 5653 5652 5652 5652 5652 5652 5651 5650
5647 5648 5650 5652 5654 5655 5656 5656 5655 5655 5654 5653 5652 5650 5649 5649 5650 5650 5651 5653 5653 5654 5654 5654 5655 5655 5655 5655 5655 5656 5658 5659 5660 5661 5661 5661 5661 5660 5660 5659 5659 5658 5656 5654 5652 5651 5651 5651 5651 5651 5651 5650 5649 5648
5646 5648 5650 5652 5654 5655 5656 5657 5656 5655 5655 5653 5652 5652 5651 5651 5651 5652 5652 5653 5653 5653 5654 5655 5655 5654 5655 5656 5657 5659 5661 5662 5663 5662 5662 5662 5661 5661 5660 5659 5658 5657 5655 5653 5650 5649 5650 5650 5650 5650 5649 5648 5647 5645
5648 5650 5652 5654 5655 5657 5658 5658 5658 5658 5657 5656 5655 5654 5653 5653 5653 5653 5653 5653 5653 5653 5654 5655 5656 5656 5656 5658 5660 5661 5663 5663 5663 5662 5662 5662 5662 5661 5660 5659 5657 5655 5652 5650 5649 5649 5649 5649 5648 5647 5646 5645 5643 5640
5651 5653 5654 5656 5657 5659 5659 5660 5660 5660 5659 5658 5657 5656 5655 5654 5654 5653 5653 5653 5653 5653 5654 5655 5656 5658 5659 5660 5661 5662 5663 5663 5663 5663 5662 5662 5662 5661 5659 5658 5655 5653 5651 5649 5648 5648 5647 5646 5645 5644 5643 5641 5638 5636
5654 5655 5657 5658 5660 5661 5662 5662 5662 5662 5661 5660 5659 5658 5657 5656 5656 5655 5654 5654 5654 5653 5654 5655 5657 5659 5660 5661 5662 5662 5663 5663 5663 5663 5663 5662 5661 5660 5658 5657 5654 5652 5650 5648 5647 5646 5645 5644 5643 5641 5639 5636 5634 5631
5656 5658 5659 5661 5662 5663 5664 5664 5664 5663 5663 5662 5661 5660 5659 5658 5657 5656 5655 5654 5654 5655 5656 5657 5658 5660 5660 5661 5662 5663 5663 5663 5663 5663 5662 5662 5660 5659 5657 5655 5653 5651 5649 5647 5646 5645 5643 5642 5640 5637 5634 5632 5628 5624